Wind_Speed
38 40 41 43 44 45 46 47 49 50 50 51 52 52 52 53 54 54 55 56 56 57 58 58 59 59 59 60 61 61 61 61 60 59 61 62 62 62 62 61 61 61 60
39 40 42 44 45 47 49 50 51 52 53 53 54 54 55 56 57 57 58 58 59 59 59 59 58 58 58 58 58 58 58 58 57 57 57 58 58 58 58 57 56 55 53
41 42 44 46 48 49 51 52 53 54 55 55 56 57 57 58 59 59 59 59 59 59 58 57 57 57 56 56 56 56 55 55 56 55 55 55 54 54 53 51 49 47 46
43 44 46 48 49 51 53 54 55 55 56 56 57 58 58 59 59 59 59 59 58 57 56 56 55 55 54 54 54 54 54 54 53 53 52 50 49 47 46 44 41 40 39
46 47 49 50 52 53 54 55 54 54 55 57 57 58 59 59 59 59 58 57 56 55 54 53 53 52 52 52 52 52 52 51 50 49 46 44 42 40 38 37 36 35 34
49 50 51 51 52 53 52 52 53 54 56 57 57 58 58 58 58 56 55 54 53 52 52 51 51 51 51 50 50 49 48 46 44 42 39 37 35 34 33 33 32 31 30
46 46 47 48 49 50 52 53 54 55 56 56 56 56 55 54 54 53 52 51 51 50 50 49 49 49 48 47 45 43 41 39 37 34 31 29 28 28 28 28 28 28 29
43 44 46 48 49 50 51 52 52 53 53 53 53 53 52 51 51 50 49 49 48 48 48 47 46 44 43 40 37 35 33 31 29 26 25 25 25 25 26 26 26 26 26
43 44 45 46 47 49 49 50 51 51 51 51 51 50 49 49 48 48 47 46 46 45 44 41 38 37 34 31 29 27 26 25 24 22 22 22 22 23 24 24 25 25 24
41 42 44 45 46 47 48 48 49 50 50 50 49 49 48 46 45 44 43 42 40 38 36 33 30 28 25 23 22 21 20 19 19 20 20 20 21 22 23 23 23 23 22
41 42 43 44 45 45 46 47 48 48 47 47 46 44 43 41 39 38 36 34 33 30 27 24 21 19 18 17 17 16 15 16 17 17 18 19 20 21 22 22 22 22 21
39 40 41 42 43 43 44 44 44 43 42 41 39 37 36 33 31 30 29 27 24 21 18 16 14 13 13 13 12 13 13 14 15 16 17 18 19 20 21 21 21 21 20
37 38 39 39 40 40 40 40 39 37 35 33 31 29 28 26 24 23 21 18 15 13 11 9 9 9 9 10 10 11 12 13 14 15 17 18 19 19 20 20 20 20 19
35 35 36 36 37 37 36 34 32 30 28 26 24 22 21 19 18 15 12 10 8 7 6 6 6 7 8 9 9 10 11 13 14 15 17 17 18 19 20 20 20 19 19
33 33 33 32 32 31 29 28 25 23 22 20 18 16 15 13 10 8 5 4 4 3 4 5 6 7 8 9 10 11 12 13 14 15 16 17 18 19 19 19 20 20 19
29 29 29 28 27 25 23 21 20 19 17 15 14 12 10 8 6 4 4 4 4 5 6 7 7 8 9 10 11 12 13 14 15 15 16 17 18 19 19 19 19 20 20
25 25 24 23 22 20 18 17 16 15 14 13 12 10 8 6 6 6 6 7 7 7 8 8 9 9 10 11 12 13 14 15 16 16 16 17 18 18 19 19 19 19 20
21 21 20 19 19 17 16 15 14 13 12 11 10 9 8 8 8 8 9 9 9 9 9 10 10 11 11 12 13 14 15 15 16 16 17 17 17 18 18 19 19 19 20
18 18 18 17 16 15 14 14 13 12 11 11 10 9 9 10 10 10 10 11 11 10 11 11 12 12 12 13 14 15 15 16 16 17 18 18 18 18 18 18 19 19 19
16 16 15 15 14 13 13 13 13 12 12 11 11 11 11 11 11 11 12 12 12 12 12 12 12 12 13 13 14 15 15 16 16 17 18 18 18 18 18 18 19 19 19
14 13 13 13 13 12 12 12 12 12 11 11 11 11 11 12 12 13 13 13 13 13 13 13 13 13 13 13 14 14 15 16 16 17 18 18 18 18 18 18 18 18 19
13 12 11 11 12 12 12 12 11 11 11 11 11 12 12 12 13 13 13 13 13 13 13 13 12 12 13 13 13 14 14 15 16 17 17 18 18 18 18 18 18 18 18
11 11 10 10 10 11 11 11 11 11 11 11 11 12 12 12 13 13 13 12 12 12 12 12 12 12 12 12 13 13 14 15 16 17 17 17 18 18 18 18 18 18 18
11 10 9 9 9 9 10 10 10 10 10 10 11 11 11 11 12 12 12 11 11 11 11 11 11 11 11 12 13 13 14 15 16 17 17 17 17 18 18 18 18 18 17
12 11 10 9 8 8 9 9 9 10 10 10 10 10 10 10 11 11 11 10 10 10 10 10 10 11 11 12 13 14 14 15 16 17 17 17 17 18 19 19 19 19 18
13 12 11 10 9 8 8 8 9 9 9 9 9 9 10 10 10 10 10 10 9 9 9 10 10 11 12 13 14 15 16 17 17 18 18 18 18 19 19 19 19 19 20
Wind_Direction
267 269 271 273 275 277 279 281 283 285 287 289 290 291 291 292 293 294 295 295 295 295 294 294 293 293 292 292 292 292 292 291 291 290 290 289 289 288 288 288 287 287 287
268 270 272 274 275 277 279 281 283 285 287 287 289 290 291 292 293 293 294 294 294 294 294 294 294 294 294 293 293 293 293 293 293 292 292 291 290 290 290 289 289 289 289
270 271 273 274 276 278 280 282 283 285 285 287 288 290 291 292 293 293 293 294 294 294 294 295 295 294 294 294 294 294 294 294 294 294 294 293 292 292 292 291 291 291 290
272 273 275 277 279 280 282 282 284 285 286 287 289 290 292 293 293 293 294 294 294 295 295 295 295 295 295 295 295 295 295 295 296 296 296 295 295 294 294 294 293 293 293
274 275 276 278 280 281 282 283 284 285 286 288 289 290 291 292 292 293 293 294 294 294 295 295 295 295 296 296 296 296 296 297 298 298 298 297 297 297 297 297 297 297 296
273 275 276 277 279 282 284 286 287 288 289 289 290 291 292 292 293 293 294 294 294 295 295 295 296 296 296 296 296 297 298 298 299 300 300 300 300 300 301 301 301 301 301
276 279 280 282 284 286 287 288 289 290 291 291 292 292 293 293 294 294 295 295 296 296 296 296 296 297 297 297 298 298 299 300 302 303 304 305 305 306 307 308 308 308 307
284 286 287 288 288 290 291 291 292 292 292 293 293 293 294 294 294 295 296 296 296 296 296 297 298 298 298 299 300 300 302 304 307 309 310 311 312 314 315 316 315 315 314
290 291 292 293 293 294 293 293 293 293 293 294 294 294 294 295 295 295 296 296 296 297 297 298 299 299 300 301 302 303 306 309 312 314 316 318 319 321 321 321 320 321 320
295 295 296 296 296 295 295 295 295 295 295 294 294 295 295 295 295 296 296 297 297 297 298 299 300 301 302 304 305 308 311 315 318 321 323 325 327 329 329 328 327 327 325
298 298 298 298 298 298 298 298 298 297 297 296 296 296 296 296 296 296 297 297 297 298 299 300 302 303 305 307 311 315 319 324 327 330 334 335 336 337 337 336 335 335 335
301 301 302 302 302 302 302 301 301 301 300 299 298 297 297 297 297 297 298 299 299 300 301 304 306 309 313 317 322 327 331 336 340 344 346 347 346 345 345 345 345 345 346
305 306 306 307 307 307 307 307 307 305 304 303 301 300 299 299 299 299 300 301 302 306 309 312 317 325 331 335 339 342 346 351 355 357 358 358 357 357 357 357 357 358 358
310 311 311 312 312 312 312 312 312 311 310 309 307 305 304 303 303 304 305 306 312 320 328 336 344 352 356 358 359 2 4 6 8 8 7 7 8 7 7 7 9 10 11
315 316 316 316 317 317 317 317 319 319 319 318 317 315 315 316 317 319 328 342 355 7 13 16 18 18 18 17 18 16 15 15 15 15 14 14 15 16 16 18 19 20 20
320 321 321 322 323 324 324 326 327 328 330 330 331 332 335 342 357 17 32 44 56 54 47 43 42 40 38 36 32 29 26 25 24 23 23 22 21 21 22 23 24 25 26
327 328 329 332 334 336 337 338 339 340 342 345 349 355 7 23 39 52 64 71 68 64 62 59 57 54 50 46 42 39 37 34 32 31 29 26 25 25 26 26 27 27 28
333 335 338 341 345 348 350 353 355 357 359 5 12 22 35 48 60 69 73 74 73 72 71 69 67 63 59 53 50 47 44 41 38 35 32 29 27 26 26 27 27 28 29
341 343 346 349 353 357 1 3 6 11 18 26 37 45 55 64 69 73 76 77 76 76 75 74 73 69 65 60 55 51 47 44 41 38 35 32 30 28 28 28 29 29 30
346 349 354 358 2 6 9 12 18 25 32 39 49 58 66 69 73 77 79 79 78 78 78 77 76 72 69 65 58 52 48 44 41 38 36 33 31 30 30 30 30 31 32
352 356 359 4 7 11 15 19 25 31 39 49 57 64 69 73 78 81 81 81 81 81 81 79 76 72 68 63 57 52 48 43 40 37 35 32 31 30 30 30 31 32 34
355 0 5 10 13 17 21 25 30 38 47 57 64 69 74 78 80 80 80 82 82 81 79 76 73 69 64 59 54 48 43 39 36 34 32 30 28 28 29 29 31 32 34
360 4 9 13 17 22 26 32 39 46 55 65 71 74 78 79 80 80 81 82 80 78 75 72 67 62 57 53 48 42 37 34 32 31 29 28 27 26 27 28 31 33 34
12 15 16 19 22 26 31 38 45 54 62 69 73 76 79 80 81 81 81 81 79 75 71 65 60 56 51 46 42 38 35 34 33 33 32 30 30 31 32 33 33 34 36
22 24 24 26 29 34 40 47 54 60 66 71 74 76 80 82 82 81 80 78 76 72 66 60 54 49 47 44 42 40 38 38 37 36 35 35 36 38 39 39 39 41 42
30 32 33 36 40 45 49 55 60 65 69 73 75 78 81 82 81 79 77 75 72 66 60 56 53 52 51 50 48 47 45 43 41 39 40 39 39 41 43 42 42 44 46
Height
5791 5790 5789 5787 5786 5784 5782 5780 5777 5775 5772 5769 5766 5763 5760 5757 5753 5748 5744 5740 5736 5731 5726 5721 5715 5710 5704 5698 5692 5686 5680 5674 5670 5665 5657 5651 5644 5638 5633 5627 5622 5618 5613
5782 5781 5780 5778 5776 5774 5772 5769 5766 5764 5760 5757 5754 5750 5747 5743 5739 5735 5730 5726 5721 5716 5710 5705 5700 5694 5688 5682 5676 5670 5664 5658 5653 5648 5642 5635 5628 5622 5616 5611 5606 5601 5596
5773 5772 5770 5768 5766 5763 5760 5758 5755 5751 5748 5744 5741 5737 5733 5729 5725 5720 5715 5711 5706 5700 5695 5690 5684 5679 5673 5667 5661 5655 5649 5643 5637 5632 5627 5620 5613 5607 5601 5596 5591 5586 5582
5763 5761 5759 5757 5754 5751 5748 5745 5742 5739 5735 5731 5727 5723 5719 5715 5710 5705 5700 5696 5691 5685 5680 5675 5670 5664 5659 5653 5647 5641 5635 5629 5623 5617 5611 5605 5599 5593 5587 5583 5579 5574 5570
5752 5749 5747 5744 5742 5739 5736 5732 5729 5725 5721 5717 5713 5709 5704 5700 5695 5690 5685 5681 5676 5671 5666 5661 5656 5650 5645 5639 5633 5627 5621 5615 5609 5603 5598 5592 5587 5581 5577 5572 5568 5564 5560
5740 5737 5735 5732 5729 5726 5722 5719 5715 5711 5707 5703 5699 5694 5690 5685 5680 5676 5671 5666 5662 5657 5652 5647 5642 5637 5632 5626 5620 5614 5608 5603 5597 5592 5587 5582 5577 5572 5567 5563 5558 5555 5552
5727 5725 5722 5719 5716 5712 5709 5705 5701 5697 5693 5688 5684 5679 5675 5670 5666 5661 5657 5653 5648 5644 5639 5634 5628 5623 5619 5613 5607 5602 5597 5591 5587 5582 5578 5573 5569 5565 5560 5556 5551 5547 5543
5715 5712 5709 5706 5703 5699 5695 5692 5687 5683 5678 5674 5669 5665 5661 5656 5651 5647 5643 5639 5635 5630 5626 5621 5616 5611 5606 5602 5597 5592 5588 5583 5579 5575 5571 5567 5563 5558 5554 5550 5545 5541 5536
5704 5701 5697 5694 5690 5686 5682 5678 5673 5669 5664 5659 5655 5650 5647 5643 5638 5634 5630 5626 5622 5618 5613 5609 5605 5600 5596 5592 5589 5585 5582 5578 5574 5570 5566 5562 5558 5554 5549 5545 5540 5536 5532
5694 5690 5686 5683 5678 5674 5669 5664 5659 5655 5650 5645 5641 5636 5633 5629 5625 5621 5617 5614 5610 5606 5603 5599 5596 5592 5589 5586 5583 5580 5577 5574 5570 5567 5563 5559 5555 5550 5546 5541 5536 5531 5527
5684 5680 5675 5671 5666 5661 5656 5651 5646 5641 5636 5631 5627 5623 5620 5616 5612 5609 5606 5603 5600 5597 5595 5592 5589 5587 5584 5582 5579 5577 5574 5571 5568 5564 5561 5556 5552 5548 5543 5538 5533 5528 5523
5673 5669 5664 5659 5654 5649 5644 5638 5633 5627 5623 5618 5614 5611 5608 5605 5602 5599 5597 5594 5592 5590 5588 5587 5585 5583 5581 5579 5577 5575 5572 5569 5566 5562 5559 5555 5550 5546 5541 5536 5531 5526 5521
5664 5659 5654 5648 5643 5637 5632 5626 5621 5616 5612 5608 5604 5601 5599 5597 5594 5592 5590 5588 5587 5585 5584 5583 5582 5581 5579 5577 5575 5573 5571 5568 5565 5561 5558 5554 5550 5545 5540 5535 5530 5525 5520
5655 5650 5644 5639 5633 5628 5622 5617 5613 5608 5604 5600 5597 5595 5592 5590 5588 5587 5585 5584 5584 5583 5582 5582 5581 5580 5578 5577 5575 5572 5570 5567 5564 5561 5558 5554 5550 5545 5541 5536 5531 5526 5522
5647 5642 5636 5631 5626 5620 5615 5610 5606 5602 5598 5596 5593 5590 5588 5586 5585 5584 5583 5583 5582 5582 5582 5582 5581 5580 5578 5577 5575 5573 5570 5568 5565 5562 5558 5555 5551 5547 5542 5538 5533 5529 5524
5641 5635 5630 5625 5620 5616 5611 5607 5602 5599 5596 5593 5590 5588 5586 5585 5584 5583 5583 5583 5583 5583 5583 5582 5582 5581 5579 5578 5576 5574 5572 5569 5566 5563 5560 5557 5553 5549 5544 5540 5536 5531 5527
5636 5631 5626 5621 5617 5612 5608 5604 5601 5598 5594 5592 5589 5588 5586 5585 5584 5584 5584 5584 5584 5584 5584 5584 5583 5582 5581 5580 5578 5576 5573 5571 5568 5565 5562 5559 5555 5551 5547 5543 5539 5534 5530
5633 5628 5624 5620 5615 5611 5608 5604 5601 5598 5595 5593 5591 5589 5588 5587 5586 5586 5586 5586 5586 5586 5586 5586 5585 5584 5583 5582 5580 5578 5576 5573 5571 5568 5564 5561 5558 5554 5550 5546 5542 5538 5534
5631 5627 5623 5619 5615 5612 5608 5605 5602 5599 5596 5594 5593 5591 5590 5590 5589 5589 5589 5589 5589 5589 5589 5588 5588 5587 5586 5585 5583 5581 5579 5576 5574 5570 5567 5564 5560 5557 5553 5549 5545 5541 5537
5630 5626 5623 5619 5616 5613 5610 5607 5604 5601 5599 5597 5596 5595 5594 5593 5593 5593 5593 5593 5592 5592 5592 5592 5591 5590 5589 5588 5586 5585 5582 5580 5577 5574 5570 5567 5564 5560 5556 5553 5549 5545 5541
5630 5626 5623 5620 5617 5614 5612 5609 5606 5604 5602 5600 5599 5598 5598 5597 5597 5597 5596 5596 5596 5596 5596 5595 5595 5594 5593 5591 5590 5588 5586 5583 5580 5577 5574 5571 5567 5564 5560 5556 5552 5549 5545
5629 5627 5624 5621 5619 5616 5614 5612 5609 5607 5606 5604 5603 5602 5602 5601 5601 5601 5601 5600 5600 5600 5599 5599 5598 5598 5596 5595 5593 5592 5589 5586 5583 5580 5577 5574 5571 5567 5563 5560 5556 5552 5549
5630 5627 5625 5623 5621 5618 5616 5614 5612 5610 5609 5608 5607 5607 5606 5606 5605 5605 5605 5604 5604 5604 5603 5603 5602 5601 5600 5598 5597 5595 5592 5590 5587 5583 5580 5577 5574 5570 5567 5563 5560 5556 5553
5631 5628 5626 5624 5622 5620 5619 5617 5615 5614 5613 5612 5611 5610 5610 5610 5609 5609 5609 5608 5608 5608 5607 5606 5606 5604 5603 5602 5600 5598 5595 5592 5589 5586 5583 5580 5577 5574 5570 5567 5563 5560 5557
5631 5629 5627 5625 5624 5622 5621 5619 5618 5617 5616 5615 5615 5614 5614 5613 5613 5613 5613 5612 5612 5611 5611 5610 5609 5608 5606 5604 5603 5600 5598 5595 5592 5589 5586 5584 5581 5577 5574 5571 5567 5564 5561
5633 5631 5628 5627 5625 5624 5623 5622 5621 5620 5619 5619 5618 5618 5617 5617 5617 5616 5616 5616 5615 5615 5614 5613 5612 5610 5609 5607 5605 5603 5601 5599 5596 5593 5590 5587 5584 5581 5578 5575 5572 5569 5566